Location: Stull Observatory
(42.2506°N, 77.7903°W)
Time: 15:13:25
(UTC-04:00)

Okean O Rocket - Visible Passes

Search period start: 30 July 2014 00:00
Search period end: 09 August 2014 00:00
Orbit: 626 x 647 km, 98.0° (Epoch: 30 July)

Date Brightness Start Highest point End Pass type
(mag) Time Alt. Az. Time Alt. Az. Time Alt. Az.
30 Jul 3.4 03:34:48 10° NE 03:38:34 27° E 03:41:19 15° SE visible
30 Jul 2.7 05:11:09 10° N 05:14:57 29° WNW 05:18:43 10° SW visible
31 Jul 2.4 03:56:44 10° NNE 04:01:01 46° E 04:03:50 20° SSE visible
01 Aug 1.6 04:18:57 10° NNE 04:23:24 82° ESE 04:26:21 21° S visible
02 Aug 4.2 03:06:45 10° ENE 03:08:54 13° E 03:11:02 10° ESE visible
02 Aug 1.8 04:41:21 10° N 04:45:42 57° WNW 04:48:52 18° SSW visible
03 Aug 3.6 03:27:56 10° NE 03:31:26 23° E 03:33:53 15° SE visible
03 Aug 2.5 05:03:57 10° N 05:07:55 33° WNW 05:11:23 13° SW visible
04 Aug 2.7 03:49:46 10° NNE 03:53:55 38° E 03:56:24 20° SSE visible
04 Aug 3.2 05:26:49 10° NNW 05:30:04 21° WNW 05:33:19 10° WSW visible
05 Aug 1.8 04:11:54 10° NNE 04:16:18 68° ESE 04:18:55 24° S visible
06 Aug 4.3 03:00:30 10° ENE 03:01:43 11° E 03:02:56 10° ESE visible
06 Aug 1.6 04:34:14 10° N 04:38:38 69° WNW 04:41:26 22° SSW visible
07 Aug 3.8 03:21:07 10° NE 03:24:18 19° E 03:26:27 14° SE visible
07 Aug 2.2 04:56:46 10° N 05:00:53 39° WNW 05:03:57 16° SW visible
08 Aug 3.0 03:42:49 10° NNE 03:46:47 32° E 03:48:58 21° SE visible
08 Aug 2.9 05:19:32 10° NNW 05:23:03 24° WNW 05:26:28 10° WSW visible
